AFL612 URMM-UDYZ

Flight info

Callsign AFL612
Flight time 0h 51m
Altitude 33000
Route MOZAT M54 GUSLI L125 OGEVI T918 TIBLO
Aircraft A320/M-SDE3FGHIRWY/LB1

Departure

Time 2026-05-06 16:38
Airport Mineralnye Vody Airport (URMM)

Arrival

Time 2026-05-06 17:29
Airport Zvartnots International Airport (UDYZ)
Time Latitude Longitude Altitude Speed Heading
2026-05-06 16:15 44.21860 43.08796 1051 ft 0 kts 212°
2026-05-06 16:31 44.21875 43.08808 1051 ft 4 kts 206°
2026-05-06 16:32 44.21900 43.08822 1051 ft 4 kts 191°
2026-05-06 16:32 44.21926 43.08824 1051 ft 4 kts 161°
2026-05-06 16:32 44.21942 43.08810 1051 ft 0 kts 122°
2026-05-06 16:34 44.21932 43.08834 1051 ft 6 kts 122°
2026-05-06 16:34 44.21894 43.08919 1051 ft 15 kts 122°
2026-05-06 16:34 44.21866 43.08979 1051 ft 0 kts 122°
2026-05-06 16:34 44.21863 43.08984 1051 ft 4 kts 122°
2026-05-06 16:35 44.21822 43.09068 1051 ft 17 kts 126°
2026-05-06 16:35 44.21732 43.09258 1051 ft 27 kts 124°
2026-05-06 16:35 44.21642 43.09414 1051 ft 17 kts 125°
2026-05-06 16:35 44.21579 43.09557 1051 ft 17 kts 122°
2026-05-06 16:36 44.21517 43.09695 1051 ft 16 kts 121°
2026-05-06 16:36 44.21520 43.09833 1051 ft 16 kts 72°
2026-05-06 16:36 44.21551 43.10012 1051 ft 22 kts 75°
2026-05-06 16:36 44.21606 43.10220 1052 ft 13 kts 30°
2026-05-06 16:37 44.21693 43.10298 1050 ft 20 kts 32°
2026-05-06 16:37 44.21780 43.10281 1053 ft 13 kts 307°
2026-05-06 16:37 44.21842 43.10146 1052 ft 22 kts 304°
2026-05-06 16:37 44.22025 43.09744 1058 ft 90 kts 302°
2026-05-06 16:38 44.22469 43.08746 1057 ft 145 kts 302°
2026-05-06 16:38 44.23027 43.07410 1358 ft 166 kts 298°
2026-05-06 16:38 44.23597 43.05988 2031 ft 169 kts 296°
2026-05-06 16:38 44.24186 43.04573 2739 ft 167 kts 303°
2026-05-06 16:39 44.24839 43.03187 3186 ft 180 kts 304°
2026-05-06 16:39 44.25578 43.01637 3440 ft 204 kts 304°
2026-05-06 16:39 44.26410 42.99876 3808 ft 229 kts 303°
2026-05-06 16:39 44.27323 42.97921 4322 ft 249 kts 303°
2026-05-06 16:40 44.28278 42.95845 5124 ft 257 kts 302°
2026-05-06 16:40 44.29243 42.93731 6039 ft 260 kts 303°
2026-05-06 16:40 44.30220 42.91578 6912 ft 265 kts 303°
2026-05-06 16:40 44.31179 42.89438 7788 ft 267 kts 300°
2026-05-06 16:41 44.31802 42.86991 8639 ft 272 kts 279°
2026-05-06 16:41 44.31747 42.84341 9526 ft 278 kts 259°
2026-05-06 16:41 44.30997 42.81821 10291 ft 286 kts 238°
2026-05-06 16:41 44.29769 42.79522 10698 ft 307 kts 233°
2026-05-06 16:42 44.28108 42.77493 11030 ft 330 kts 210°
2026-05-06 16:42 44.25906 42.76478 11672 ft 340 kts 187°
2026-05-06 16:42 44.23532 42.76694 12422 ft 346 kts 165°
2026-05-06 16:42 44.21326 42.78062 13170 ft 351 kts 152°
2026-05-06 16:43 44.19164 42.79680 13932 ft 354 kts 152°
2026-05-06 16:43 44.16981 42.81326 14586 ft 358 kts 152°
2026-05-06 16:43 44.14779 42.82990 15246 ft 362 kts 152°
2026-05-06 16:43 44.12559 42.84665 15905 ft 365 kts 152°
2026-05-06 16:44 44.10320 42.86351 16574 ft 368 kts 152°
2026-05-06 16:44 44.08067 42.88054 17237 ft 371 kts 152°
2026-05-06 16:44 44.05789 42.89777 17891 ft 374 kts 152°
2026-05-06 16:44 44.03493 42.91509 18507 ft 378 kts 152°
2026-05-06 16:45 44.01160 42.93262 19068 ft 381 kts 152°
2026-05-06 16:45 43.98851 42.94996 19625 ft 383 kts 152°
2026-05-06 16:45 43.96473 42.96777 20192 ft 386 kts 152°
2026-05-06 16:45 43.94185 42.98485 20727 ft 388 kts 152°
2026-05-06 16:46 43.91780 43.00276 21278 ft 391 kts 152°
2026-05-06 16:46 43.89373 43.02068 21812 ft 393 kts 152°
2026-05-06 16:46 43.86962 43.03868 22340 ft 396 kts 152°
2026-05-06 16:46 43.84527 43.05687 22877 ft 398 kts 152°
2026-05-06 16:47 43.82083 43.07516 23390 ft 401 kts 152°
2026-05-06 16:47 43.79622 43.09354 23857 ft 403 kts 152°
2026-05-06 16:47 43.77144 43.11200 24283 ft 406 kts 152°
2026-05-06 16:47 43.74636 43.13009 24689 ft 408 kts 156°
2026-05-06 16:48 43.71967 43.14335 25105 ft 410 kts 166°
2026-05-06 16:48 43.69160 43.15029 25498 ft 412 kts 173°
2026-05-06 16:48 43.66294 43.15515 25893 ft 415 kts 173°
2026-05-06 16:48 43.63425 43.16013 26280 ft 417 kts 173°
2026-05-06 16:49 43.60547 43.16518 26681 ft 419 kts 172°
2026-05-06 16:49 43.57648 43.17027 27054 ft 421 kts 172°
2026-05-06 16:49 43.54730 43.17538 27427 ft 424 kts 172°
2026-05-06 16:49 43.51839 43.18045 27793 ft 427 kts 172°
2026-05-06 16:50 43.48843 43.18571 28158 ft 429 kts 172°
2026-05-06 16:50 43.45865 43.19093 28529 ft 432 kts 172°
2026-05-06 16:50 43.42879 43.19615 28889 ft 434 kts 172°
2026-05-06 16:50 43.39867 43.20138 29249 ft 437 kts 172°
2026-05-06 16:51 43.36842 43.20663 29593 ft 440 kts 172°
2026-05-06 16:51 43.33798 43.21197 29938 ft 442 kts 172°
2026-05-06 16:51 43.30751 43.21733 30249 ft 443 kts 172°
2026-05-06 16:51 43.27685 43.22272 30528 ft 445 kts 172°
2026-05-06 16:52 43.24645 43.22807 30813 ft 446 kts 172°
2026-05-06 16:52 43.21570 43.23350 31119 ft 447 kts 172°
2026-05-06 16:52 43.18478 43.23892 31416 ft 448 kts 172°
2026-05-06 16:52 43.15392 43.24430 31793 ft 447 kts 172°
2026-05-06 16:53 43.12306 43.24964 32194 ft 445 kts 173°
2026-05-06 16:53 43.09248 43.25487 32557 ft 445 kts 173°
2026-05-06 16:53 43.06167 43.26013 32900 ft 444 kts 173°
2026-05-06 16:53 43.03094 43.26540 33080 ft 446 kts 173°
2026-05-06 16:54 42.99998 43.27070 33097 ft 453 kts 173°
2026-05-06 16:54 42.93651 43.28172 33102 ft 466 kts 172°
2026-05-06 16:55 42.87407 43.30674 33107 ft 471 kts 161°
2026-05-06 16:55 42.81200 43.33724 33112 ft 471 kts 161°
2026-05-06 16:56 42.75047 43.36727 33122 ft 470 kts 161°
2026-05-06 16:56 42.68883 43.39719 33125 ft 470 kts 162°
2026-05-06 16:57 42.62712 43.42717 33128 ft 470 kts 162°
2026-05-06 16:57 42.56563 43.45674 33132 ft 469 kts 163°
2026-05-06 16:58 42.50327 43.48306 33133 ft 468 kts 166°
2026-05-06 16:58 42.44072 43.50752 33134 ft 468 kts 166°
2026-05-06 16:59 42.37830 43.53235 33142 ft 468 kts 166°
2026-05-06 16:59 42.31602 43.55791 33146 ft 467 kts 166°
2026-05-06 17:00 42.25381 43.58359 33146 ft 467 kts 166°
2026-05-06 17:00 42.19165 43.60897 33144 ft 467 kts 166°
2026-05-06 17:01 42.12948 43.63413 33144 ft 467 kts 166°
2026-05-06 17:01 42.06726 43.65384 32946 ft 446 kts 177°
2026-05-06 17:01 42.03688 43.65817 32680 ft 434 kts 177°
2026-05-06 17:02 42.00723 43.66237 32419 ft 422 kts 177°
2026-05-06 17:02 41.97840 43.66645 32159 ft 412 kts 177°
2026-05-06 17:02 41.95017 43.67048 31900 ft 406 kts 177°
2026-05-06 17:02 41.92235 43.67448 31648 ft 403 kts 177°
2026-05-06 17:03 41.89442 43.67853 31392 ft 401 kts 177°
2026-05-06 17:03 41.86669 43.68255 31144 ft 400 kts 177°
2026-05-06 17:03 41.83913 43.68653 30894 ft 398 kts 177°
2026-05-06 17:03 41.81162 43.69047 30648 ft 396 kts 178°
2026-05-06 17:04 41.78428 43.69438 30407 ft 395 kts 177°
2026-05-06 17:04 41.75705 43.69829 30145 ft 394 kts 178°
2026-05-06 17:04 41.72987 43.70221 29862 ft 393 kts 177°
2026-05-06 17:04 41.70272 43.70616 29579 ft 391 kts 177°
2026-05-06 17:05 41.67565 43.71008 29287 ft 390 kts 177°
2026-05-06 17:05 41.64878 43.71392 28999 ft 388 kts 177°
2026-05-06 17:05 41.62200 43.71772 28722 ft 386 kts 177°
2026-05-06 17:05 41.59630 43.72138 28447 ft 385 kts 177°
2026-05-06 17:06 41.56978 43.72516 28172 ft 383 kts 177°
2026-05-06 17:06 41.54335 43.72895 27895 ft 381 kts 177°
2026-05-06 17:06 41.51700 43.73273 27632 ft 379 kts 177°
2026-05-06 17:06 41.49082 43.73647 27364 ft 377 kts 177°
2026-05-06 17:07 41.46480 43.74019 27101 ft 376 kts 177°
2026-05-06 17:07 41.43886 43.74390 26840 ft 374 kts 177°
2026-05-06 17:07 41.41313 43.74757 26577 ft 372 kts 177°
2026-05-06 17:07 41.38735 43.75122 26319 ft 371 kts 177°
2026-05-06 17:08 41.36174 43.75483 26069 ft 369 kts 176°
2026-05-06 17:08 41.33624 43.75841 25810 ft 368 kts 176°
2026-05-06 17:08 41.31088 43.76199 25564 ft 366 kts 176°
2026-05-06 17:08 41.28556 43.76559 25317 ft 365 kts 176°
2026-05-06 17:09 41.26043 43.76918 25073 ft 364 kts 176°
2026-05-06 17:09 41.23530 43.77276 24825 ft 363 kts 176°
2026-05-06 17:09 41.21028 43.77631 24582 ft 361 kts 176°
2026-05-06 17:09 41.18522 43.77983 24347 ft 360 kts 176°
2026-05-06 17:10 41.16066 43.78330 24118 ft 360 kts 176°
2026-05-06 17:10 41.13582 43.78682 23875 ft 359 kts 176°
2026-05-06 17:10 41.11946 43.78916 23721 ft 358 kts 176°
2026-05-06 17:10 41.08639 43.79404 23353 ft 357 kts 175°
2026-05-06 17:11 41.06166 43.79776 23075 ft 355 kts 175°
2026-05-06 17:11 41.04512 43.80027 22891 ft 354 kts 175°
2026-05-06 17:11 41.02069 43.80398 22618 ft 352 kts 176°
2026-05-06 17:11 40.99640 43.80763 22344 ft 351 kts 176°
2026-05-06 17:12 40.97220 43.81126 22078 ft 349 kts 176°
2026-05-06 17:12 40.94815 43.81488 21813 ft 348 kts 176°
2026-05-06 17:12 40.92449 43.81842 21555 ft 347 kts 176°
2026-05-06 17:12 40.90016 43.82200 21288 ft 345 kts 176°
2026-05-06 17:13 40.87664 43.82546 21030 ft 344 kts 176°
2026-05-06 17:13 40.85269 43.82903 20779 ft 343 kts 176°
2026-05-06 17:13 40.82896 43.83260 20529 ft 342 kts 176°
2026-05-06 17:13 40.80547 43.83611 20275 ft 341 kts 176°
2026-05-06 17:14 40.78153 43.83966 20018 ft 340 kts 176°
2026-05-06 17:14 40.75809 43.84311 19774 ft 338 kts 176°
2026-05-06 17:14 40.73488 43.84500 19526 ft 335 kts 184°
2026-05-06 17:14 40.71184 43.84116 19282 ft 332 kts 195°
2026-05-06 17:15 40.68949 43.83344 19044 ft 332 kts 196°
2026-05-06 17:15 40.66725 43.82571 18803 ft 331 kts 196°
2026-05-06 17:15 40.64501 43.81810 18560 ft 330 kts 195°
2026-05-06 17:15 40.62278 43.81055 18322 ft 329 kts 195°
2026-05-06 17:16 40.60060 43.80301 18051 ft 328 kts 196°
2026-05-06 17:16 40.57857 43.79548 17774 ft 326 kts 196°
2026-05-06 17:16 40.55668 43.78797 17503 ft 325 kts 196°
2026-05-06 17:16 40.53487 43.78050 17235 ft 323 kts 196°
2026-05-06 17:17 40.51321 43.77309 16969 ft 321 kts 196°
2026-05-06 17:17 40.49168 43.76573 16703 ft 319 kts 195°
2026-05-06 17:17 40.47014 43.75838 16439 ft 317 kts 196°
2026-05-06 17:17 40.44904 43.75119 16183 ft 311 kts 196°
2026-05-06 17:18 40.42823 43.74410 15917 ft 306 kts 196°
2026-05-06 17:18 40.40778 43.73710 15655 ft 303 kts 196°
2026-05-06 17:18 40.38721 43.73207 15406 ft 300 kts 185°
2026-05-06 17:18 40.36637 43.73310 15043 ft 302 kts 173°
2026-05-06 17:19 40.34554 43.73718 14651 ft 303 kts 173°
2026-05-06 17:19 40.32471 43.74127 14279 ft 303 kts 173°
2026-05-06 17:19 40.30395 43.74535 13917 ft 303 kts 173°
2026-05-06 17:19 40.28328 43.74941 13565 ft 300 kts 173°
2026-05-06 17:20 40.26251 43.75348 13190 ft 299 kts 173°
2026-05-06 17:20 40.24245 43.75739 12745 ft 301 kts 173°
2026-05-06 17:20 40.22194 43.76140 12499 ft 295 kts 173°
2026-05-06 17:20 40.20173 43.76535 12252 ft 290 kts 173°
2026-05-06 17:21 40.18247 43.77145 12113 ft 283 kts 156°
2026-05-06 17:21 40.16692 43.78658 11961 ft 279 kts 132°
2026-05-06 17:21 40.15778 43.80915 11554 ft 285 kts 104°
2026-05-06 17:21 40.15578 43.83480 11283 ft 284 kts 95°
2026-05-06 17:22 40.15469 43.86053 10957 ft 283 kts 95°
2026-05-06 17:22 40.15359 43.88622 10639 ft 282 kts 95°
2026-05-06 17:22 40.15248 43.91169 10251 ft 280 kts 94°
2026-05-06 17:22 40.15136 43.93737 9507 ft 285 kts 94°
2026-05-06 17:23 40.15022 43.96296 9014 ft 278 kts 94°
2026-05-06 17:23 40.14911 43.98781 8618 ft 269 kts 94°
2026-05-06 17:23 40.14739 44.01108 8204 ft 260 kts 102°
2026-05-06 17:23 40.14485 44.03404 7843 ft 251 kts 93°
2026-05-06 17:24 40.14469 44.05642 7518 ft 244 kts 89°
2026-05-06 17:24 40.14501 44.07862 7201 ft 244 kts 89°
2026-05-06 17:24 40.14524 44.10074 6872 ft 245 kts 89°
2026-05-06 17:24 40.14542 44.12281 6556 ft 240 kts 89°
2026-05-06 17:25 40.14559 44.14431 6243 ft 233 kts 89°
2026-05-06 17:25 40.14574 44.16491 5941 ft 219 kts 89°
2026-05-06 17:25 40.14589 44.18446 5654 ft 211 kts 89°
2026-05-06 17:25 40.14602 44.20274 5400 ft 192 kts 89°
2026-05-06 17:26 40.14614 44.21948 5154 ft 177 kts 89°
2026-05-06 17:26 40.14625 44.23447 4934 ft 160 kts 89°
2026-05-06 17:26 40.14635 44.24859 4729 ft 152 kts 89°
2026-05-06 17:26 40.14644 44.26227 4527 ft 150 kts 89°
2026-05-06 17:27 40.14653 44.27582 4313 ft 149 kts 89°
2026-05-06 17:27 40.14662 44.28950 4101 ft 151 kts 89°
2026-05-06 17:27 40.14671 44.30318 3890 ft 151 kts 89°
2026-05-06 17:27 40.14714 44.31695 3641 ft 152 kts 86°
2026-05-06 17:28 40.14711 44.33066 3400 ft 151 kts 93°
2026-05-06 17:28 40.14690 44.34440 3182 ft 150 kts 83°
2026-05-06 17:28 40.14722 44.35796 3063 ft 150 kts 91°
2026-05-06 17:28 40.14724 44.37151 2889 ft 149 kts 86°
2026-05-06 17:29 40.14749 44.38406 2842 ft 123 kts 96°
2026-05-06 17:29 40.14716 44.39304 2838 ft 74 kts 89°
2026-05-06 17:29 40.14729 44.39765 2840 ft 35 kts 90°
2026-05-06 17:29 40.14757 44.40007 2841 ft 21 kts 55°
2026-05-06 17:30 40.14878 44.40037 2840 ft 18 kts
2026-05-06 17:30 40.14905 44.40037 2840 ft 0 kts
2026-05-06 17:31 40.14911 44.40037 2840 ft 4 kts
2026-05-06 17:31 40.14968 44.40024 2841 ft 10 kts 343°
2026-05-06 17:31 40.15037 44.40012 2841 ft 10 kts 357°
2026-05-06 17:31 40.15081 44.40013 2841 ft 1 kts 359°
2026-05-06 17:32 40.15087 44.40013 2841 ft 0 kts 359°
2026-05-06 17:32 40.15091 44.40013 2841 ft 0 kts 359°